Home   Weather   Burbank   Past weeks

Flag for USA Past Weather in Burbank, California, USA — Yesterday and Last 2 Weeks

73 °F

Passing clouds.

Feels Like: 77 °F
Forecast: 62 / 75 °F
Wind: 13 mph from Southeast

Location: Bob Hope Airport

Current Time: Oct 24, 2016 at 1:14:10 PM

Latest Report: Oct 24, 2016 at 11:53 AM

Visibility: 10 mi

Pressure: 30.03 "Hg

Humidity: 50%

Dew Point: 53 °F

Location of BurbankLocation

Past Weather in Burbank — Graph


Burbank Temperature Yesterday

Maximum temperature yesterday: 82 °F (at 1:53 PM)
Minimum temperature yesterday: 59 °F (at 3:53 AM)
Average temperature yesterday: 68 °F

High & Low Weather Summary for the Past Weeks

High94 °F (Oct 20, 2:53 PM)97% (Oct 14, 2:53 AM)30.06 "Hg (Oct 14, 2:53 AM)
Low55 °F (Oct 13, 4:53 AM)4% (Oct 20, 1:53 PM)29.78 "Hg (Oct 21, 5:53 PM)
Average69 °F54%29.93 "Hg
* Reported Oct 9 11:53 AM — Oct 24 11:53 AM, Burbank, Weather by CustomWeather, © 2016

Note: Actual official high and low records may vary slightly from our data, if they occured in-between our weather recording intervals... More about our weather records


Burbank Weather History for the Previous 24 Hours

Scroll right to see more
Time TempWeatherWind HumidityBarometerVisibility
11:53 AM
Mon, Oct 24
73 °FPassing clouds.13 mph50%30.03 "Hg10 mi
10:53 AM70 °FPassing clouds.12 mph66%30.04 "Hg10 mi
9:53 AM68 °FPartly sunny.12 mph73%30.05 "Hg10 mi
8:53 AM65 °FOvercast.7 mph81%30.06 "Hg10 mi
7:53 AM64 °FThunderstorms. Cloudy.6 mph84%30.03 "Hg10 mi
6:53 AM64 °FOvercast.No wind84%30.01 "Hg10 mi
5:53 AM64 °FPartly cloudy.3 mph84%29.99 "Hg10 mi
4:53 AM64 °FPassing clouds.No wind84%29.97 "Hg10 mi
3:53 AM63 °FPassing clouds.No wind84%29.97 "Hg10 mi
2:53 AM65 °FPassing clouds.3 mph78%29.97 "Hg10 mi
1:53 AM66 °FPassing clouds.No wind75%29.98 "Hg10 mi
12:53 AM67 °FPassing clouds.6 mph71%29.97 "Hg10 mi
11:53 PM
Sun, Oct 23
66 °FPassing clouds.5 mph78%29.97 "Hg10 mi
10:53 PM67 °FLight rain. Passing clouds.6 mph73%29.98 "Hg10 mi
9:53 PM68 °FPassing clouds.No wind68%29.98 "Hg10 mi
8:53 PM69 °FLight rain. Passing clouds.5 mph66%29.97 "Hg10 mi
7:53 PM71 °FPartly cloudy.5 mph51%29.96 "Hg10 mi
6:53 PM71 °FLight rain. Passing clouds.5 mph57%29.96 "Hg10 mi
5:53 PM72 °FSunny.10 mph49%29.94 "Hg10 mi
4:53 PM75 °FSunny.13 mph36%29.95 "Hg10 mi
3:53 PM75 °FSunny.10 mph42%29.96 "Hg10 mi
2:53 PM79 °FSunny.8 mph29%29.92 "Hg10 mi
1:53 PM82 °FSunny.14 mph16%29.93 "Hg10 mi
Weather by CustomWeather, © 2016

See weather overviewHow to use our weather pages